[Iaude] MPEC X13: 2015 NV28 [a=3.15,e=0.60,i=24.8,H=17.9]

mpec at marsden.cfa.harvard.edu mpec at marsden.cfa.harvard.edu
Sun Dec 1 18:00:54 EST 2019


M.P.E.C. 2019-X13                              Issued 2019 December 1, 22:59 UT

     The Minor Planet Electronic Circulars contain information on unusual
         minor planets and routine data on comets.  They are published
    on behalf of Division F of the International Astronomical Union by the
          Minor Planet Center, Smithsonian Astrophysical Observatory,
                          Cambridge, MA 02138, U.S.A.

             Prepared using the Tamkin Foundation Computer Network

                              MPC at CFA.HARVARD.EDU
            URL https://www.minorplanetcenter.net/    ISSN 1523-6714

                                   2015 NV28                                    


Observations:
     K15N28V* C2015 07 08.30234 17 37 41.64 +11 26 37.6          21.1 VqEX013G96
     K15N28V  C2015 07 08.30778 17 37 41.40 +11 26 36.2          21.1 VqEX013G96
     K15N28V  C2015 07 08.31322 17 37 41.13 +11 26 34.9          21.7 VqEX013G96
     K15N28V  C2015 07 08.31867 17 37 40.91 +11 26 33.6          21.2 VqEX013G96
     K15N28V  C2015 07 18.41764217 31 17.172+10 32 21.48         21.9 GVEX013F51
     K15N28V  C2015 07 18.42986517 31 16.780+10 32 16.85         21.6 GVEX013F51
     K15N28V  C2015 08 06.33880517 26 40.609+08 09 14.55         22.9 GVEX013F51
     K15N28V  C2015 08 06.35076117 26 40.584+08 09 08.54         22.3 GVEX013F51
     K15N28V  C2015 08 06.37477117 26 40.552+08 08 56.48         22.4 GVEX013F51
     K15N28V  C2015 08 08.33927317 26 43.602+07 52 31.90         22.9 GVEX013F51
     K15N28V  C2015 08 08.35119517 26 43.625+07 52 25.88         22.7 GVEX013F51
     K15N28V  C2015 08 08.36308217 26 43.654+07 52 19.54         22.7 GVEX013F51
     K15N28V  C2019 09 24.49040403 54 27.049+14 39 00.35         22.1 GVEX013F51
     K15N28V  C2019 09 24.50278303 54 27.043+14 38 54.78         22.6 GVEX013F51
     K15N28V  C2019 09 24.51522403 54 27.088+14 38 50.24         22.5 GVEX013F51
     K15N28V  C2019 09 24.52770103 54 27.115+14 38 45.39         23.0 GVEX013F51
     K15N28V  C2019 10 25.53949 03 44 24.924+10 02 34.34         22.1 wUEX013F51
     K15N28V  C2019 10 25.55049 03 44 24.431+10 02 26.86         22.1 wUEX013F51
     K15N28V  C2019 10 25.56139 03 44 23.954+10 02 19.74         22.0 wUEX013F51
     K15N28V  C2019 10 25.57229 03 44 23.462+10 02 12.31         22.0 wUEX013F51
     K15N28V  C2019 11 04.51410203 36 17.659+08 07 06.84         21.4 GVEX013F51
     K15N28V  C2019 11 04.52513003 36 17.019+08 06 58.87         21.7 GVEX013F51
     K15N28V  C2019 11 04.54705903 36 15.789+08 06 42.98         21.6 GVEX013F51
     K15N28V  C2019 11 05.57311503 35 19.153+07 54 25.45         21.7 GVEX013F51
     K15N28V  C2019 11 05.58529303 35 18.469+07 54 16.53         21.6 GVEX013F51
     K15N28V  C2019 11 05.59746103 35 17.766+07 54 07.72               VEX013F51
     K15N28V  C2019 11 29.37540 03 10 52.146+03 14 51.99         22.0 wUEX013F52
     K15N28V  C2019 11 29.38849 03 10 51.311+03 14 43.65         21.8 wUEX013F52
     K15N28V  C2019 11 29.40141 03 10 50.478+03 14 35.22         22.2 wUEX013F52
     K15N28V  C2019 11 29.41433 03 10 49.671+03 14 27.20         21.4 wUEX013F52
     K15N28V |C2019 12 01.14922 03 09 04.02 +02 56 19.8          21.7 GVEX013807
     K15N28V |C2019 12 01.15488 03 09 03.67 +02 56 16.3          21.7 GVEX013807
     K15N28V |C2019 12 01.16053 03 09 03.30 +02 56 12.7          22.2 GVEX013807

Observer details:
807 Cerro Tololo Observatory, La Serena.  Observers T. Linder, R. Holmes.  
    1.00-m f/10.0 astrograph + CCD.
F51 Pan-STARRS 1, Haleakala.  Observers J. Bulger, K. Chambers, T. Lowe, A. 
   Schultz, M. Willman.  Measurers S. Chastel, M. Huber, Y. Ramanjooloo, R. 
   Wainscoat, R. Weryk, K. Chambers, T. de Boer, L. Denneau, J. Fairlamb, H. 
   Flewelling, C.-C. Lin, E. Magnier.  1.8-m Ritchey-Chretien + CCD.
F52 Pan-STARRS 2, Haleakala.  Observers J. Bulger, T. Dukes, T. Lowe, A. 
   Schultz, M. Willman.  Measurers K. Chambers, S. Chastel, T. de Boer, L. 
   Denneau, J. Fairlamb, H. Flewelling, M. Huber, C.-C. Lin, E. Magnier, Y. 
   Ramanjooloo, R. Wainscoat, R. Weryk.  1.8-m Ritchey-Chretien + CCD.
G96 Mt. Lemmon Survey.  Observer D. C. Fuls.  Measurers E. J. Christensen, D. 
   C. Fuls, A. R. Gibbs, A. D. Grauer, R. E. Hill, J. A. Johnson, R. A. 
   Kowalski, S. M. Larson, R. G. Matheny, F. C. Shelly.  1.5-m reflector + CCD.

Orbital elements:
2015 NV28                                                Earth MOID = 0.3528 AU
Epoch 2020 May 31.0 TT = JDT 2459000.5                  Bell
M 351.26090              (2000.0)            P               Q
n   0.17604145     Peri.  314.72032     -0.94334958     -0.23696454
a   3.1530154      Node   213.67873     +0.25300328     -0.96657720
e   0.5984637      Incl.   24.75988     -0.21466466     -0.09785868
P   5.60           H   17.9           G   0.15           U   2
Residuals in seconds of arc
150708 G96  0.6-  0.1-    150808 F51  0.2+  0.1-    191104 F51  0.0   0.1-
150708 G96  0.3-  0.1-    190924 F51  0.2+  0.4+    191105 F51  0.1-  0.1+
150708 G96  0.4-  0.0     190924 F51  0.2-  0.3-    191105 F51  0.0   0.1-
150708 G96  0.2+  0.1+    190924 F51  0.0   0.0     191105 F51  0.1-  0.1-
150718 F51  0.0   0.2-    190924 F51  0.0   0.0     191129 F52  0.1-  0.2+
150718 F51  0.1-  0.1-    191025 F51  0.1+  0.0     191129 F52  0.1-  0.2+
150806 F51  0.1+  0.0     191025 F51  0.0   0.1-    191129 F52  0.3-  0.0
150806 F51  0.0   0.0     191025 F51  0.1+  0.0     191129 F52  0.1-  0.3+
150806 F51  0.1+  0.1-    191025 F51  0.1-  0.1-    191201 807  0.1+  0.2-
150808 F51  0.1-  0.3+    191104 F51  0.2+  0.1+    191201 807  0.1+  0.1-
150808 F51  0.0   0.3+    191104 F51  0.1-  0.0     191201 807  0.1-  0.2-

Ephemeris:
2015 NV28                a,e,i = 3.15, 0.60, 25                  q = 1.2661
Date    TT    R. A. (2000) Decl.     Delta      r    Elong.  Phase     V
2019 11 01    03 39 23.1 +08 48 46   1.8642  2.8193   160.4     6.8    22.0
...
2019 11 16    03 24 57.0 +05 48 20   1.7489  2.7224   167.3     4.6    21.7
...
2019 11 24    03 16 29.1 +04 14 13   1.7159  2.6697   161.2     6.8    21.7
...
2019 11 30    03 10 13.9 +03 08 17   1.7038  2.6298   154.7     9.2    21.8
2019 12 01    03 09 13.1 +02 57 50   1.7028  2.6231   153.6     9.6    21.8
2019 12 02    03 08 13.0 +02 47 34   1.7021  2.6165   152.5    10.0    21.8
...
2019 12 08    03 02 30.1 +01 49 59   1.7034  2.5761   145.4    12.5    21.9
...
2019 12 16    02 55 55.8 +00 45 26   1.7186  2.5217   136.1    15.7    21.9
...
2019 12 31    02 47 59.3 -00 33 35   1.7792  2.4182   119.4    20.8    22.1

A. U. Tomatic                (C) Copyright 2019 MPC           M.P.E.C. 2019-X13




More information about the Iaude mailing list